Regional Weather Roundup
Issued by NWS

Home | Current Version | Previous Version | Graphics & Text | Print | Product List | Glossary On
Versions: 1 2 3 4 5 6 7 8 9 10 11 12 13 14 15 16 17 18 19 20 21 22 23 24 25 26 27 28 29 30 31 32 33 34 35 36 37 38 39 40 41 42 43 44 45 46 47 48 49 50
022
ASUS43 KLSX 310907
RWRMO

WEATHER SUMMARY FOR MISSOURI
NATIONAL WEATHER SERVICE SPRINGFIELD MO
400 AM CDT TUE MAY 31 2016

NOTE: "FAIR" INDICATES FEW OR NO CLOUDS BELOW 12,000 FEET WITH NO
       SIGNIFICANT WEATHER AND/OR OBSTRUCTIONS TO VISIBILITY.
       CURRENT SKY AND/OR WEATHER CONDITIONS ARE NOT AVAILABLE FOR
       CHILLICOTHE AND FARMINGTON.

MOZ001>031-035>038-043-044-053-054-311000-
...NORTHERN AND WESTERN MISSOURI...

CITY           SKY/WX    TMP DP  RH WIND       PRES   REMARKS
KANSAS CTY INT CLOUDY    61  58  90 W5        29.94S
KANSAS C DTWN  CLOUDY    65  60  84 CALM      29.93S
LEE`S SUMMIT   CLOUDY    63  60  90 CALM      29.94F
ST JOSEPH      CLOUDY    65  61  87 S7        29.92F
CHILLICOTHE      N/A     60  60 100 CALM      29.96S
KIRKSVILLE     CLOUDY    62  60  93 CALM      29.96F

$$
MOZ066>068-077>081-088>096-101>105-311000-
...SOUTHWEST MISSOURI...

CITY           SKY/WX    TMP DP  RH WIND       PRES   REMARKS
SPRINGFIELD    CLOUDY    65  61  87 S7        29.94S
JOPLIN         CLOUDY    65  63  93 S3        29.94R

$$
MOZ032>034-039>042-045>050-055>058-069>072-311000-
...CENTRAL MISSOURI...

CITY           SKY/WX    TMP DP  RH WIND       PRES   REMARKS
COLUMBIA       LGT RAIN  64  62  93 E7        29.98F
JEFFERSON CITY LGT RAIN  65  63  93 E5        29.97F
ROLLA          CLOUDY    63  61  93 W3        29.98R
SEDALIA        CLOUDY    64  62  93 E7        29.95F
WHITEMAN AFB   CLOUDY    63  63 100 E5        29.93F
WARRENSBURG    CLOUDY    61  61 100 E3        29.93S

$$
MOZ051-052-059>065-311000-
...EAST CENTRAL MISSOURI...

CITY           SKY/WX    TMP DP  RH WIND       PRES   REMARKS
ST LOUIS INTL  CLOUDY    72  61  68 CALM      29.98S
SPIRIT OF STL  CLOUDY    67  65  93 CALM      29.97S
ST CHARLES     CLOUDY    69  63  81 CALM      29.96S

$$
MOZ072>076-082>087-097>100-106>115-311000-
...SOUTH CENTRAL AND SOUTHEAST MISSOURI...

CITY           SKY/WX    TMP DP  RH WIND       PRES   REMARKS
CAPE GIRARDEAU CLOUDY    68  66  93 N3        29.96R
FARMINGTON     CLOUDY    66  64  93 CALM      29.99S
POPLAR BLUFF   CLOUDY    69  64  84 W7        29.95F
WEST PLAINS    CLOUDY    64  61  90 CALM      29.98F

$$



USA.gov is the U.S. government's official web portal to all federal, state and local government web resources and services.